Regional Weather Roundup
Issued by NWS

Home | Current Version | Previous Version | Text Only | Print | Product List | Glossary Off
Versions: 1 2 3 4 5 6 7 8 9 10 11 12 13 14 15 16 17 18 19 20 21 22 23 24 25 26 27 28 29 30 31 32 33 34 35 36 37 38 39 40 41 42 43 44 45 46 47 48 49 50

064
ASUS43 KLOT 120008
RWRIL

ILLINOIS REGIONAL WEATHER ROUNDUP
NATIONAL WEATHER SERVICE CHICAGO/ROMEOVILLE IL
600 PM CST THU FEB 11 2016

NOTE: "FAIR" INDICATES FEW OR NO CLOUDS BELOW 12,000 FEET WITH NO
SIGNIFICANT WEATHER AND/OR OBSTRUCTIONS TO VISIBILITY.

* THESE STATIONS ARE NOT UNDER NWS QUALITY CONTROL. THEY ALSO MAY NOT
  REPORT WEATHER SUCH AS PRECIPITATION OR FOG.

ILZ001-002-007-009-015-016-024-120100-
NORTHWEST ILLINOIS

CITY           SKY/WX    TMP DP  RH WIND       PRES   REMARKS
MOLINE         CLOUDY    22   5  48 CALM      30.28S
6HR MIN TEMP:  20; 6HR MAX TEMP:  25;

STERLING*      CLEAR     19   3  49 CALM      30.26S
SAVANNA*       PTCLDY    20   4  49 CALM      30.29S
$$

ILZ003-004-008-010-011-017-018-120100-
NORTH CENTRAL ILLINOIS

CITY           SKY/WX    TMP DP  RH WIND       PRES   REMARKS
ROCKFORD       PTCLDY    17   4  56 W3        30.29S
6HR MIN TEMP:  17; 6HR MAX TEMP:  22;

FREEPORT*      PTCLDY    17   4  57 CALM      30.28S
ROCHELLE*      MOCLDY    20   6  55 W5        30.28S WCI  13
DE KALB*       CLEAR     17   5  60 CALM      30.27S
$$

ILZ005-006-012>014-019>023-120100-
NORTHEAST ILLINOIS

CITY           SKY/WX    TMP DP  RH WIND       PRES   REMARKS
CHICAGO-OHARE  PTCLDY    18   3  52 W6        30.27S WCI  10
6HR MIN TEMP:  16; 6HR MAX TEMP:  21;

CHICAGO-MIDWAY PTCLDY    20  -1  40 W5        30.28F WCI  13
6HR MIN TEMP:  18; 6HR MAX TEMP:  24;

AURORA         CLEAR     20   6  55 CALM      30.29R
6HR MIN TEMP:  18; 6HR MAX TEMP:  22;

LANSING*       CLEAR     19   2  46 W5        30.29S WCI  13
JOLIET*        CLEAR     22   5  48 CALM      30.30S
WAUKEGAN       CLEAR     16   2  54 CALM      30.26F
6HR MIN TEMP:  16; 6HR MAX TEMP:  20;

DUPAGE AIRPORT CLEAR     17   3  54 W5        30.27S WCI  10
6HR MIN TEMP:  17; 6HR MAX TEMP:  21;

KANKAKEE*      CLEAR     19   7  57 SW5       30.31S WCI  13
WHEELING       CLEAR     19   1  45 W3        30.29S
6HR MIN TEMP:  17; 6HR MAX TEMP:  22;

MORRIS*        CLEAR     21   7  53 CALM      30.28R
ROMEOVILLE*    CLEAR     19   7  58 W5        30.29S WCI  12
NORTHERLY ISL    N/A     19   8  62 E5          N/A  WCI  12
$$

LMZ740>746-120100-
SOUTHERN LAKE MICHIGAN

STATION/POSITION SKY/WX   TEMP    WIND        PRES    VSBY  WAVE
                          AIR SEA DIR/SP/G                  HT/PER
                          (F)     (DEG/KT/KT) (MB)    (MI)  (FT/S)
HARRISON CRIB              21     120/  4/  5   N/A
BURNHAM HARBOR             19     120/  3/  5   N/A
CALUMET HARBOR             20      70/  3/  5 1025.0R
BURNS HARBOR               20      CALM  /  3 1026.4S
MICHIGAN CITY              19     260/  4/  5   N/A
$$

ILZ025>027-034>036-040-047-049-050-058-095>099-120100-
WEST-CENTRAL ILLINOIS

CITY           SKY/WX    TMP DP  RH WIND       PRES   REMARKS
QUINCY         CLOUDY    23  10  57 NW3       30.29R
GALESBURG*     CLOUDY    23   6  48 CALM      30.28S
MACOMB*        CLOUDY    24   9  51 CALM      30.30S
JACKSONVILLE*  CLOUDY    26  14  60 SE6       30.29S WCI  20
PITTSFIELD*    CLOUDY    24  11  59 E5        30.30S WCI  18
$$

ILZ028>032-037-038-041>044-048-051>054-059>061-120100-
CENTRAL ILLINOIS

CITY           SKY/WX    TMP DP  RH WIND       PRES   REMARKS
PONTIAC        PTCLDY    23   9  54 CALM      30.31S
BLOOMINGTON    CLOUDY    21   9  60 SE3       30.30S
DECATUR        CLOUDY    24   8  50 E5        30.30S WCI  18
PEORIA         CLOUDY    24   3  40 E3        30.30S
6HR MIN TEMP:  21; 6HR MAX TEMP:  27;

LACON*         PTCLDY    21   3  46 CALM      30.30S
LINCOLN*       CLOUDY    25   9  50 SE3       30.30F
SPRINGFIELD    CLOUDY    26  10  50 E7        30.30F WCI  18
6HR MIN TEMP:  23; 6HR MAX TEMP:  28;

TAYLORVILLE    CLOUDY    25  10  54 E5        30.30F WCI  19
$$

ILZ033-039-045-046-055>057-062-063-120100-
EAST-CENTRAL ILLINOIS

CITY           SKY/WX    TMP DP  RH WIND       PRES   REMARKS
CHAMPAIGN      PTCLDY    21   9  59 E3        30.30S
RANTOUL*       CLOUDY    22   9  56 CALM      30.31S
MATTOON        PTCLDY    22   8  55 CALM      30.30S
PARIS*         CLOUDY    23  10  56 CALM      30.32S
$$

ILZ079-100>102-120100-
SOUTHWEST ILLINOIS

CITY           SKY/WX    TMP DP  RH WIND       PRES   REMARKS
ALTON          CLOUDY    25  10  54 NE3       30.31F
BELLEVILLE     PTCLDY    27  12  54 E3        30.30F
CAHOKIA*       CLOUDY    28  10  46 E9        30.30F WCI  19
SPARTA*        MOCLDY    27  14  57 NE3       30.33R
$$

ILZ064>066-069>071-074>076-080>082-084>086-088>090-092>094-120100-
SOUTH-CENTRAL ILLINOIS

CITY           SKY/WX    TMP DP  RH WIND       PRES   REMARKS
CARBONDALE     PTCLDY    30  16  56 NE5       30.32R WCI  25
6HR MIN TEMP:  29; 6HR MAX TEMP:  34;

CAIRO*         MOCLDY    34  24  66 NE5       30.30R WCI  30
EFFINGHAM*     CLOUDY    24  11  57 CALM      30.34S
MARION         CLOUDY    30  18  59 N7        30.33R WCI  23
MT. VERNON     MOCLDY    28  12  50 CALM      30.32R
CENTRALIA*     CLOUDY    28  13  52 NE3       30.31R
SALEM*         CLOUDY    28  13  54 NE3       30.32R
METROPOLIS*    PTCLDY    33  23  65 N7        30.32R WCI  27
$$

ILZ067-068-072-073-078-083-087-091-120100-
SOUTHEAST ILLINOIS

CITY           SKY/WX    TMP DP  RH WIND       PRES   REMARKS
LAWRENCEVILLE  CLOUDY    26  13  57 MISG      30.34R
FLORA*         CLOUDY    28  14  57 N5        30.33S WCI  22
FAIRFIELD*     CLOUDY    28  12  50 NE5       30.31F WCI  23
HARRISBURG*    PTCLDY    30  15  53 N5        30.33R WCI  25
ROBINSON*      PTCLDY    24   9  53 CALM      30.35R
CARMI*         PTCLDY    29  17  60 NE5       30.32S WCI  24
$$

ABBREVIATIONS USED IN REMARKS
   TC - TEMPERATURE IN CELSIUS
  WCI - WIND CHILL INDEX
   HX - HEAT INDEX
  VSB - VISIBILITY
$$





USA.gov is the U.S. government's official web portal to all federal, state and local government web resources and services.